Tracking 19709 objects as of 18-Jun-2019
HD Live streaming from Space Station
objects crossing your sky now

MOLNIYA 1-75

Track MOLNIYA 1-75 now!
MOLNIYA 1-75 is classified as:


NORAD ID: 19807
Int'l Code: 1989-014A
Perigee: 1,586.9 km
Apogee: 38,792.4 km
Inclination: 64.2 °
Period: 718.0 minutes
Semi major axis: 26560 km
RCS: 12.6191 m2 (large)
Launch date: February 15, 1989
Source: Commonwealth of Independent States (former USSR) (CIS)
Launch site: TYURATAM MISSILE AND SPACE COMPLEX (TTMTR)
aabbcc
Your satellite tracking list
Your tracking list is empty




NASA's NSSDC Master Catalog

Two Line Element Set (TLE):
1 19807U 89014A   19166.99917724 -.00000307 +00000-0 +51976-2 0  9999
2 19807 064.2009 056.3146 7003893 273.5322 015.6440 02.00560245222074
Source of the keplerian elements: AFSPC